Showing default

SOLRAD 7B, 1291

Orbit data source: Space-Track

SOLRAD 7B, 1291 is an American payload satellite in LEO that was launched on Tue, 09 Mar 1965 UTC via a THOR SLV-2 AGENA D launch vehicle from the Air Force Western Test Range (AFWTR). Payload-class satellites include a variety of spacecraft equipped with specific instruments for various scientific and technological missions. These include communications satellites like Starlink; space stations such as the ISS; scientific satellites like the Hubble; Earth observation satellites from companies like Planet Labs, Umbra, and HawkEye 360; GPS; miniature CubeSats for education and research; and military/defense satellites.

Loading next visibility...
Identifier
1291, 1965-016D
Orbit
LEO
Country
Flag of USUS
Related business
Manufacturer
NRL
Mission
Spacecraft
Bus & Motor
NRL 24", Unknown motor
Mass
47 kg wet, 47 kg dry
Launch date (UTC)
1965-03-09 (61 years ago)
Launch vehicle
THOR SLV-2 AGENA D
Launch site
Air Force Western Test Range (AFWTR)
Object type
Payload
Rocket body
Debris
Shape & HBR
Unknown
Radar Cross Section
Medium (>0.1 m² and <1 m²)

Expand to show TLE details & history
Last TLE update: 1 day ago

TLE from 1 day ago
0 SOLRAD 7B
1  1291U 65016D   25304.58615983  .00000055  00000-0  79314-4 0  9998
2  1291  70.0810   2.2644 0018582  56.6203 303.6677 13.94936825 84829
Epoch: 2025-10-31T14:04Z
TLE epoch observation values (Epoch: 2025-10-31T14:04:04.209Z)
Latitude
-0.00006°
Longitude
111.11837°
Altitude
906.205 km
Speed
7.403 km/s
True Right ascension
00h 09m 03s
True Declination
0° 00' 00"
Sunlit
Object was in full shadow at epoch
Visualization orbit readout
Latitude
Unknown
Longitude
Unknown
Altitude
Unknown
Speed
Unknown
Apparent Right ascension
Unknown
Apparent Declination
Unknown
Sunlit
N/A
Visualization observer readout
Local Sidereal Time
11:49:43
Azimuth
Unknown
Elevation
Unknown
Doppler factor
Unknown
Orbital elements
Apogee altitude
922.959 km
Perigee altitude
895.875 km
Semi-major axis
7,287.554 km
Eccentricity
0.00186
Inclination
70.081°
RAAN
2.2644°
Arg. of periapsis
56.6203°
True anomaly
303.49025°
Mean anomaly
303.6677°
Eccentric anomaly
303.579°
Mean motion
3.48876 °/min
Orbital period
103.19 mins
BSTAR
0.000079314
Loading maneuver chart data...
Computing Atmospheric mass density...
Loading historical data...
Loading historical data...
Loading historical data...
Loading historical data...
Loading historical data...
Loading historical data...
Loading historical data...

Documentation

Showing up to 5 results
|